This is the latest recevied weather packets stored in our database for station/object SR9WXP. If no packets are shown the sender has not sent any weather packets the latest 1 day(s).
| Time | Temp. | Humidity | Pressure | Rain* | Wind** | Luminosity | Snow |
|---|---|---|---|---|---|---|---|
| 1778030351 | 7.22° C | 66% | 848.4 hPa | - | 4.92 m/s, 171° | - | - |
| 1778030230 | 7.22° C | 66% | 848.3 hPa | - | 5.81 m/s, 176° | - | - |
| 1778030048 | 7.22° C | 67% | 848.2 hPa | - | 5.81 m/s, 185° | - | - |
| 1778029990 | 7.22° C | 66% | 848.2 hPa | - | 5.36 m/s, 181° | - | - |
| 1778029870 | 7.22° C | 66% | 848.2 hPa | - | 5.36 m/s, 180° | - | - |
| 1778029746 | 7.22° C | 66% | 848.2 hPa | - | 6.26 m/s, 179° | - | - |
| 1778029629 | 7.22° C | 66% | 848.2 hPa | - | 5.36 m/s, 178° | - | - |
| 1778029509 | 7.22° C | 65% | 848.2 hPa | - | 4.47 m/s, 175° | - | - |
| 1778029446 | 7.22° C | 65% | 848.2 hPa | - | 4.47 m/s, 179° | - | - |
| 1778029270 | 7.22° C | 65% | 848.2 hPa | - | 6.26 m/s, 178° | - | - |
| 1778029140 | 7.22° C | 65% | 848.1 hPa | - | 6.26 m/s, 185° | - | - |
| 1778029022 | 7.22° C | 65% | 848.1 hPa | - | 6.26 m/s, 194° | - | - |
| 1778028902 | 7.22° C | 65% | 848 hPa | - | 5.81 m/s, 183° | - | - |
| 1778028840 | 7.22° C | 64% | 848 hPa | - | 5.81 m/s, 182° | - | - |
| 1778028781 | 7.22° C | 64% | 848 hPa | - | 5.81 m/s, 184° | - | - |
| 1778028660 | 7.78° C | 64% | 848 hPa | - | 5.81 m/s, 180° | - | - |
| 1778028537 | 7.78° C | 64% | 848 hPa | - | 4.92 m/s, 178° | - | - |
| 1778028418 | 7.78° C | 64% | 848 hPa | - | 6.26 m/s, 174° | - | - |
| 1778028298 | 7.78° C | 64% | 848 hPa | - | 5.81 m/s, 172° | - | - |
| 1778028237 | 7.78° C | 64% | 848 hPa | - | 5.36 m/s, 174° | - | - |
| 1778028177 | 7.78° C | 64% | 848 hPa | - | 5.36 m/s, 179° | - | - |
| 1778028057 | 7.78° C | 64% | 847.9 hPa | - | 6.26 m/s, 180° | - | - |
| 1778027934 | 7.78° C | 64% | 847.9 hPa | - | 7.15 m/s, 178° | - | - |
| 1778027815 | 7.78° C | 64% | 847.8 hPa | - | 6.71 m/s, 181° | - | - |
| 1778027695 | 7.78° C | 64% | 847.7 hPa | - | 6.71 m/s, 180° | - | - |
* Rain since midnight (hover to see other rain measurements)
** Current wind speed in m/s (hover to see current wind gust speed)